Wetbulb
63.27 59.51 57.38 56.49 43.98 41.99 39.10 43.48 48.65 48.97 50.70 53.86 57.44 56.99 55.76 59.56 58.63 55.05 67.19 71.02 70.94 72.12 73.70 74.36 75.83 76.66 77.23 77.45 77.32 77.06 76.78 76.51 76.64 76.53 76.21 75.84 75.39 74.63 73.86 73.21 72.55 71.94 70.17 69.37 68.46 67.61 67.57 67.49 67.40
61.29 59.48 55.51 52.31 40.44 35.67 39.88 46.91 47.12 50.08 52.09 56.45 57.84 57.64 58.98 59.15 63.53 66.94 68.65 70.82 70.99 72.40 73.16 72.50 75.48 76.38 77.03 77.11 76.95 76.80 76.70 76.55 76.55 76.43 76.06 75.66 75.24 74.53 73.08 72.28 71.69 70.97 69.84 68.57 67.76 67.32 67.54 67.90 67.89
62.34 62.97 52.43 44.08 40.03 39.17 40.54 48.58 48.80 52.22 54.82 57.66 56.34 59.50 60.10 61.09 64.68 65.24 71.08 70.91 70.12 71.63 72.18 72.61 75.23 75.88 76.80 77.06 76.62 76.41 76.41 76.52 76.40 76.33 75.88 75.36 74.99 74.02 73.23 72.39 71.95 70.42 69.29 68.45 67.81 67.83 68.46 68.52 68.35
59.19 57.97 52.63 41.06 40.98 44.54 47.08 49.46 51.58 52.47 54.67 59.14 59.32 57.32 62.54 66.31 66.08 68.87 72.36 71.13 70.06 70.07 71.67 74.78 74.95 75.10 76.13 76.54 76.40 76.34 76.44 76.41 76.24 76.03 75.63 75.08 74.44 73.65 72.91 72.34 71.91 71.08 69.35 69.05 68.89 69.53 69.60 69.31 69.16
60.06 55.22 42.90 39.37 42.32 47.00 50.42 51.79 52.37 51.48 53.09 58.23 59.30 58.00 60.10 66.83 68.87 72.65 72.10 71.68 69.25 68.36 71.89 73.88 74.88 74.78 75.08 75.99 76.00 76.02 75.99 75.75 75.86 75.90 75.58 74.91 74.16 73.59 73.03 72.37 71.46 71.09 71.16 69.97 70.07 71.10 70.74 70.69 70.61
54.80 52.08 42.62 38.96 44.73 49.19 51.20 52.26 50.95 51.43 54.81 58.73 58.06 58.55 59.73 66.93 68.03 70.74 71.91 70.79 70.59 68.60 72.32 72.81 75.08 74.85 74.50 74.60 74.99 75.00 75.14 75.06 75.23 75.14 75.07 74.68 73.96 73.49 72.81 72.19 71.67 71.53 71.51 71.36 71.55 71.26 71.15 70.89 70.89
49.74 50.77 44.67 44.65 45.73 47.84 50.29 52.74 51.07 50.42 51.46 58.00 60.82 59.30 60.94 64.02 66.50 69.92 70.54 71.25 70.91 70.73 71.56 71.82 73.05 74.42 74.95 74.42 74.05 73.97 74.12 74.12 74.19 74.04 73.87 73.91 73.53 73.04 72.36 71.80 71.48 71.52 71.47 71.37 71.66 71.40 71.40 71.40 71.45
50.60 49.48 47.29 48.34 47.09 48.07 53.53 53.95 52.26 51.07 52.03 57.07 59.44 56.95 59.00 64.03 66.52 66.66 69.26 69.77 70.20 72.04 71.62 71.20 71.42 72.80 72.97 73.19 74.28 73.91 73.61 73.46 73.30 73.23 73.41 73.24 73.21 72.67 72.26 71.02 71.16 71.50 71.55 71.55 71.77 71.73 71.72 71.76 72.05
53.34 45.33 42.82 46.73 47.96 50.09 54.60 52.83 56.56 56.16 52.90 54.25 57.90 62.34 64.04 66.65 67.28 65.40 64.71 67.41 69.72 71.63 71.03 70.99 70.52 70.85 71.15 71.69 73.46 74.01 74.04 73.81 73.13 72.98 72.98 72.00 69.85 69.80 69.50 70.36 70.81 71.31 71.36 71.58 71.85 71.82 71.86 72.02 72.02
46.88 44.08 45.53 50.83 52.78 51.99 54.20 54.13 54.79 54.42 54.18 52.70 56.61 63.65 64.86 65.59 66.24 65.01 64.50 63.92 67.43 70.33 71.03 70.72 70.40 69.61 68.61 70.49 70.36 71.01 71.22 71.32 70.88 70.24 69.69 69.21 66.87 66.16 68.39 69.45 70.89 71.18 71.43 71.82 71.99 72.01 72.36 71.90 68.73
46.90 44.50 49.89 51.77 54.33 55.49 54.63 54.69 56.45 54.32 51.75 52.01 52.93 60.92 63.24 64.45 64.57 63.62 63.86 65.11 64.35 66.51 72.17 71.99 71.02 69.98 68.16 67.96 68.68 70.30 70.02 69.82 69.67 68.39 67.59 67.70 67.06 66.02 67.31 65.51 67.54 67.16 70.12 68.58 70.11 70.12 70.12 68.52 67.86
42.84 47.00 50.16 51.01 52.87 52.71 52.46 55.35 54.17 55.03 54.81 56.52 56.14 57.52 60.40 62.80 62.97 63.14 62.86 63.54 65.30 65.36 70.62 72.48 71.30 69.59 68.29 68.12 68.68 69.12 68.51 68.24 67.98 68.22 67.09 67.22 66.05 64.95 63.31 64.17 64.22 64.68 66.71 66.58 65.78 67.16 68.00 67.21 67.11
43.28 45.71 47.90 50.29 51.68 52.27 53.20 51.74 52.87 54.09 57.16 58.80 57.77 56.98 56.47 60.55 62.40 62.87 63.89 63.84 65.16 65.01 67.21 68.54 70.85 69.97 69.19 68.14 69.50 69.23 68.55 68.00 67.38 67.27 67.37 66.90 66.14 64.32 63.84 63.32 63.71 63.97 65.81 66.24 64.53 65.22 66.55 66.67 67.04
43.67 45.07 46.61 48.10 47.90 50.67 50.73 51.24 52.98 54.40 56.96 57.47 57.95 56.37 56.31 59.74 60.07 59.93 62.65 63.38 63.43 63.59 64.33 69.21 71.10 71.42 70.78 70.27 70.26 70.10 69.67 69.18 68.36 67.76 67.45 67.21 66.55 65.37 64.39 63.89 64.25 64.24 65.39 66.08 64.78 64.95 65.81 66.55 67.17
44.38 40.91 44.10 45.63 46.77 47.09 48.90 47.34 50.53 54.74 55.56 54.83 56.43 56.83 56.52 57.20 60.17 60.19 60.69 61.18 62.69 63.67 63.90 67.40 71.83 73.14 72.76 71.66 71.11 71.56 69.91 70.35 69.67 69.09 68.66 67.78 66.42 66.29 65.24 64.52 64.54 64.79 65.45 65.43 65.09 64.79 66.23 66.04 67.83
40.09 40.02 34.12 40.63 45.99 47.33 45.84 40.67 47.94 51.69 53.63 53.61 55.33 56.91 57.71 57.21 57.59 60.06 60.95 60.66 62.28 62.71 62.47 65.01 72.86 73.70 72.85 72.36 72.07 71.11 71.66 71.28 70.89 70.55 69.72 69.07 67.88 66.68 66.43 65.68 64.85 65.50 65.61 65.80 65.21 64.73 64.98 66.75 66.31
36.48 32.32 34.11 37.85 43.06 44.36 44.22 42.13 47.70 50.37 51.03 51.51 52.60 54.50 56.98 57.61 58.40 58.32 60.67 61.82 62.35 62.59 61.67 61.72 64.19 72.39 72.42 72.39 72.36 72.18 71.34 70.40 70.27 69.74 70.18 70.66 68.93 68.48 67.54 66.31 66.36 65.58 65.52 65.84 65.74 64.92 64.10 63.68 63.83
32.23 33.51 36.55 36.52 39.52 41.68 40.48 42.05 46.76 48.84 49.32 49.54 51.14 53.74 56.40 56.84 57.52 58.58 59.28 61.85 62.50 63.65 62.95 65.30 65.41 68.36 71.79 72.58 71.79 71.41 71.07 70.60 69.92 69.89 68.66 69.61 70.75 69.68 67.44 67.86 66.61 66.48 66.18 64.88 65.27 63.54 64.41 63.37 64.87
39.72 38.15 37.17 40.08 42.94 40.20 39.67 40.63 43.14 45.32 47.73 48.28 49.77 50.82 53.94 56.47 57.90 58.34 58.77 60.06 61.98 64.04 64.46 64.96 65.19 66.03 68.10 67.70 69.54 68.33 67.25 66.59 66.51 67.38 68.52 68.35 71.72 70.49 68.73 67.66 67.78 68.21 66.32 66.06 64.86 63.64 62.78 63.55 64.38
40.07 37.76 36.82 40.03 42.45 41.15 39.71 39.34 42.58 44.36 45.17 46.43 48.87 50.33 51.77 54.42 55.57 56.92 58.12 59.12 60.46 63.18 63.43 63.76 63.95 64.34 63.89 63.90 64.49 64.11 63.85 63.92 64.44 65.60 67.98 69.20 71.08 71.10 69.66 68.76 68.44 67.37 66.65 64.87 64.29 64.16 62.01 63.35 63.92
38.06 36.50 36.86 37.04 41.18 41.79 39.10 36.97 39.50 43.25 45.30 47.50 48.57 50.76 51.71 53.15 54.31 56.08 57.18 58.88 59.99 62.15 62.82 64.77 64.66 64.51 63.61 63.70 64.42 64.26 64.07 63.83 64.19 65.94 66.78 69.04 71.24 71.04 70.54 69.40 68.44 67.47 66.35 65.58 64.67 64.01 62.51 61.54 62.98
34.67 40.66 39.94 38.72 36.10 30.45 38.54 28.33 36.53 40.62 42.40 45.50 47.26 48.04 48.86 51.12 54.04 55.09 55.58 56.29 57.52 61.16 61.81 62.86 63.59 64.36 65.14 65.01 63.66 63.90 64.64 63.11 63.02 62.21 68.53 69.14 70.61 70.40 70.17 69.82 68.59 67.88 66.79 65.20 65.20 65.38 63.19 62.18 60.74
38.23 42.85 40.45 39.50 36.35 32.92 34.13 29.58 34.58 39.28 39.38 41.70 45.35 47.96 48.48 49.72 52.04 52.93 53.88 54.94 56.76 60.16 60.28 62.64 63.84 63.84 63.88 64.58 64.71 64.49 63.37 63.48 63.79 65.12 67.87 68.03 68.31 69.70 69.83 69.15 68.19 67.57 67.68 66.73 66.17 65.20 63.68 62.86 63.21
43.62 39.86 38.30 37.45 34.38 27.10 32.26 31.08 32.31 35.95 39.41 41.96 44.96 47.11 49.25 51.35 51.42 51.92 53.10 55.38 55.46 56.42 57.13 57.35 59.55 63.16 63.68 63.11 65.53 63.99 63.04 64.21 64.75 66.91 67.16 67.14 67.63 67.39 68.38 69.16 69.02 68.32 67.62 67.32 66.51 66.50 64.47 64.26 63.85
39.28 32.24 24.41 22.28 24.40 24.80 34.31 31.73 33.34 38.94 42.57 43.52 43.92 45.64 47.98 49.63 51.20 53.01 52.56 52.55 54.34 55.21 55.27 56.65 58.22 58.56 62.37 64.39 65.74 64.99 64.34 64.43 63.89 67.61 67.55 66.83 66.41 65.83 66.20 67.34 67.79 68.10 68.00 67.85 66.38 65.01 64.95 64.30 63.26
34.48 34.21 27.10 21.64 20.59 24.90 34.90 28.62 33.24 41.55 43.69 45.43 46.71 46.13 47.12 48.89 49.97 50.38 53.91 54.13 54.55 54.82 55.16 56.24 58.49 62.17 64.56 64.57 66.39 66.66 65.14 64.58 66.92 68.59 67.52 66.63 66.66 66.62 66.94 67.23 68.43 68.41 68.42 68.15 66.72 65.36 65.02 64.39 62.77
36.54 30.52 37.62 30.39 32.12 25.51 29.20 34.31 39.06 41.70 42.96 43.25 43.19 44.83 46.48 48.04 49.98 50.91 52.38 54.03 54.13 53.94 56.12 57.82 58.30 61.28 64.20 65.09 65.55 66.33 67.15 65.99 68.45 67.50 67.14 66.94 66.67 67.32 67.19 68.22 68.19 68.25 67.91 67.01 66.09 65.50 63.67 63.96 62.45
37.45 39.96 28.39 30.46 20.95 20.61 27.29 29.83 30.81 37.75 38.24 41.14 41.77 42.47 44.76 47.16 50.49 51.31 53.31 54.15 55.37 55.14 56.15 57.33 58.79 60.55 63.21 65.63 67.16 68.60 68.85 69.76 68.05 67.42 66.54 66.33 65.97 66.76 67.21 67.77 67.46 67.37 66.92 66.98 65.42 63.74 63.44 62.89 61.45
34.35 33.18 33.02 31.83 29.73 20.95 20.20 25.79 40.33 37.55 39.25 40.05 41.32 43.31 45.22 46.15 51.12 52.37 59.06 59.46 57.72 61.13 63.92 64.87 66.53 66.36 66.81 67.73 68.09 68.53 68.80 69.50 68.23 67.05 67.05 66.78 67.05 66.81 67.25 67.55 67.12 66.93 65.98 64.85 63.15 62.44 61.97 62.22 61.75
38.52 35.78 33.83 28.51 25.65 28.49 26.87 28.01 40.36 39.59 41.04 41.92 41.71 44.28 46.32 47.95 50.53 56.55 60.57 61.18 61.92 65.45 66.33 66.60 66.92 67.22 67.59 68.23 68.63 68.20 68.97 69.22 68.60 68.06 68.69 68.24 67.39 67.61 67.62 67.54 67.01 66.17 65.56 64.40 61.93 61.84 62.72 62.04 61.22
MSLP
1009.62 1009.39 1009.50 1009.55 1010.10 1009.42 1008.43 1006.42 1004.43 1002.79 1001.30 999.82 999.16 998.52 999.37 999.30 1000.52 1002.39 1002.50 1003.17 1004.53 1005.44 1005.80 1006.29 1006.48 1007.09 1007.86 1008.48 1009.49 1009.79 1010.27 1010.68 1011.30 1011.62 1012.02 1012.28 1012.78 1013.07 1013.41 1013.62 1013.81 1014.03 1014.18 1014.36 1014.49 1014.61 1014.69 1014.79 1014.85
1009.60 1009.32 1009.42 1009.33 1009.82 1009.37 1007.66 1005.27 1003.50 1001.14 999.95 999.48 997.97 997.79 998.38 999.93 999.58 1001.35 1001.95 1003.58 1004.22 1005.16 1005.65 1006.15 1006.39 1007.14 1007.78 1008.31 1009.30 1009.75 1010.04 1010.72 1011.25 1011.65 1012.15 1012.48 1012.82 1013.09 1013.34 1013.64 1013.79 1013.95 1014.10 1014.20 1014.35 1014.48 1014.62 1014.75 1014.98
1009.76 1009.49 1009.75 1009.53 1009.30 1008.48 1006.87 1004.01 1002.78 1001.05 999.84 998.03 997.89 997.66 998.25 999.68 1000.35 1001.54 1002.22 1003.62 1004.38 1005.41 1005.53 1006.01 1006.48 1007.08 1007.61 1008.20 1009.09 1009.63 1010.06 1010.62 1011.20 1011.49 1011.90 1012.38 1012.75 1013.16 1013.36 1013.52 1013.66 1013.92 1013.99 1014.15 1014.31 1014.46 1014.55 1014.68 1014.91
1009.53 1009.51 1009.49 1008.99 1008.43 1006.99 1005.44 1003.73 1002.81 1001.48 999.82 997.65 997.44 998.09 998.69 998.90 1000.07 1001.06 1002.63 1003.59 1004.02 1005.29 1005.68 1006.01 1006.54 1007.06 1007.72 1008.24 1008.83 1009.31 1009.82 1010.32 1010.96 1011.43 1011.88 1012.17 1012.62 1013.10 1013.40 1013.53 1013.63 1013.76 1013.93 1014.08 1014.29 1014.45 1014.56 1014.63 1014.83
1009.43 1009.47 1009.53 1008.90 1007.62 1006.09 1004.44 1003.15 1002.00 1000.98 1000.20 998.19 997.50 998.15 998.85 999.53 999.72 1001.07 1002.17 1002.82 1003.56 1005.06 1005.47 1006.01 1006.51 1006.88 1007.58 1008.33 1008.66 1009.07 1009.56 1010.06 1010.62 1011.04 1011.59 1011.96 1012.41 1012.92 1013.16 1013.42 1013.53 1013.65 1013.89 1014.09 1014.25 1014.47 1014.52 1014.63 1014.70
1009.63 1009.12 1009.26 1008.62 1007.08 1005.15 1003.51 1002.31 1001.52 1000.70 999.59 998.23 997.92 998.36 999.16 999.09 999.70 1000.99 1001.65 1002.57 1003.66 1004.26 1005.10 1005.88 1006.51 1006.93 1007.38 1007.96 1008.43 1009.01 1009.45 1009.91 1010.39 1010.76 1011.28 1011.64 1012.11 1012.65 1012.99 1013.25 1013.25 1013.45 1013.75 1013.95 1014.00 1014.23 1014.37 1014.40 1014.52
1009.64 1009.39 1008.90 1008.04 1006.63 1004.55 1002.53 1001.31 1000.92 1000.00 999.24 997.92 998.09 998.73 1000.29 1000.71 1000.43 1000.37 1001.32 1002.47 1003.61 1004.11 1004.78 1005.57 1006.30 1006.92 1007.37 1007.84 1008.29 1008.92 1009.45 1009.89 1010.19 1010.46 1010.92 1011.24 1011.70 1012.08 1012.61 1012.83 1012.90 1013.13 1013.45 1013.66 1013.88 1013.99 1014.10 1014.17 1014.47
1009.00 1009.03 1008.65 1007.57 1006.50 1004.15 1002.29 1001.31 1000.62 999.91 999.01 997.91 998.28 999.13 1000.45 1001.24 1000.95 1001.86 1001.63 1002.41 1003.28 1004.28 1004.75 1005.40 1006.34 1006.86 1007.41 1007.84 1008.22 1008.63 1009.18 1009.68 1009.90 1010.28 1010.60 1010.99 1011.51 1011.90 1012.18 1012.52 1012.57 1012.77 1013.10 1013.39 1013.60 1013.71 1013.99 1013.92 1014.05
1008.79 1008.64 1007.89 1006.98 1006.07 1003.94 1002.38 1001.71 1000.47 999.53 999.19 998.35 998.29 998.85 999.52 1000.11 1000.14 1001.33 1002.68 1002.80 1003.27 1004.12 1004.53 1005.31 1006.19 1006.76 1007.34 1007.90 1008.24 1008.55 1008.95 1009.40 1009.67 1010.03 1010.25 1010.74 1011.10 1011.52 1011.84 1012.14 1012.33 1012.55 1012.83 1013.10 1013.31 1013.40 1013.71 1013.63 1013.89
1008.59 1007.82 1006.60 1006.17 1005.41 1004.21 1002.71 1001.96 1001.04 1000.46 999.81 999.03 999.19 999.74 999.38 1000.00 1000.67 1001.48 1003.49 1003.05 1003.38 1003.67 1003.97 1004.49 1005.37 1005.91 1006.67 1007.14 1007.78 1008.32 1008.65 1009.10 1009.40 1009.71 1009.98 1010.37 1010.81 1011.12 1011.39 1011.59 1011.85 1012.11 1012.42 1012.73 1013.03 1013.28 1013.53 1013.53 1013.76
1007.84 1006.52 1006.57 1005.69 1004.96 1004.25 1003.40 1002.13 1001.55 1001.02 1000.43 999.94 999.56 999.55 999.29 1000.12 1001.44 1002.75 1003.05 1003.46 1004.34 1004.72 1003.84 1004.42 1004.86 1005.37 1005.85 1006.59 1007.23 1007.75 1008.25 1008.67 1008.94 1009.27 1009.56 1009.98 1010.57 1010.97 1010.98 1011.34 1011.51 1011.80 1012.06 1012.46 1012.72 1013.09 1013.28 1013.37 1013.58
1007.43 1006.47 1006.27 1005.68 1005.18 1004.51 1003.56 1002.99 1001.90 1001.52 1001.12 1000.11 999.08 999.80 1000.23 999.97 1000.66 1001.60 1002.49 1002.79 1004.02 1004.35 1005.72 1004.59 1004.59 1004.65 1005.46 1005.55 1006.56 1007.05 1007.66 1007.95 1008.36 1008.61 1009.12 1009.61 1010.20 1010.61 1010.77 1010.94 1011.23 1011.49 1011.68 1012.20 1012.49 1012.84 1013.03 1013.18 1013.14
1007.04 1006.45 1005.85 1005.06 1004.74 1004.18 1003.31 1002.72 1002.43 1001.23 1000.85 1000.12 998.89 999.38 1000.24 1000.54 999.81 1000.72 1002.46 1002.96 1004.05 1004.45 1004.95 1003.72 1003.57 1004.17 1004.77 1005.48 1005.83 1006.54 1006.91 1007.24 1007.48 1007.92 1008.36 1008.83 1009.43 1009.85 1010.29 1010.41 1010.60 1010.84 1011.27 1011.72 1012.17 1012.48 1012.65 1012.73 1012.62
1007.36 1006.46 1005.50 1004.75 1004.18 1003.77 1003.37 1002.28 1002.24 1000.82 1000.74 1000.31 999.62 999.32 999.89 1000.49 999.70 1000.51 1002.13 1002.93 1003.19 1003.07 1002.99 1002.69 1003.04 1003.36 1004.31 1004.93 1005.29 1005.63 1006.13 1006.35 1006.86 1007.23 1007.46 1008.01 1008.44 1008.93 1009.41 1009.64 1009.96 1010.23 1010.43 1010.94 1011.39 1011.84 1011.91 1011.91 1012.07
1007.47 1006.80 1005.59 1004.65 1004.31 1003.13 1003.48 1002.28 1000.87 1000.77 1000.57 1000.42 999.86 999.42 999.43 1000.22 1000.12 999.61 1000.00 1001.01 1001.70 1002.05 1002.16 1002.28 1002.53 1003.21 1004.18 1004.58 1004.76 1004.85 1005.23 1005.86 1005.93 1006.36 1006.58 1007.06 1007.63 1008.10 1008.57 1008.89 1009.19 1009.50 1009.64 1010.16 1010.65 1011.13 1011.23 1011.41 1011.40
1008.05 1007.18 1006.24 1004.79 1004.16 1003.30 1004.15 1002.02 1001.06 1000.84 1000.57 1000.21 999.85 999.37 999.25 999.81 1000.24 999.96 999.42 999.77 1000.10 1000.80 1001.29 1001.77 1001.96 1002.74 1003.31 1003.74 1003.92 1004.18 1004.50 1004.90 1005.28 1005.60 1005.79 1006.16 1006.78 1007.17 1007.74 1008.08 1008.29 1008.59 1009.06 1009.61 1010.17 1010.56 1010.74 1010.79 1010.82
1008.29 1007.54 1006.65 1005.22 1004.58 1003.92 1003.55 1002.06 1000.92 1000.98 1000.71 999.98 999.65 999.56 998.96 998.65 999.55 1000.01 999.83 999.32 999.51 999.75 1000.29 1000.83 1001.49 1001.86 1002.39 1002.80 1003.15 1003.62 1003.80 1004.25 1004.53 1004.96 1005.28 1005.47 1005.90 1006.25 1006.81 1007.24 1007.56 1007.81 1008.52 1008.96 1009.43 1009.93 1010.18 1010.56 1010.77
1008.15 1007.08 1006.12 1004.94 1004.65 1003.88 1003.44 1002.34 1001.00 1000.67 1000.43 1000.03 999.44 999.08 998.97 998.80 998.35 999.20 999.36 999.67 999.08 998.87 999.17 1000.13 1000.76 1001.28 1001.76 1002.18 1002.86 1003.41 1003.50 1003.83 1003.99 1004.27 1004.48 1004.73 1005.07 1005.24 1006.05 1006.49 1006.87 1007.31 1007.91 1008.43 1008.82 1009.35 1009.71 1009.88 1010.14
1007.19 1006.51 1005.87 1004.84 1004.57 1004.31 1003.79 1002.97 1001.37 1001.18 1000.19 999.54 999.18 999.02 998.67 998.46 998.30 998.12 998.85 998.80 998.91 998.96 999.00 999.50 1000.15 1000.72 1001.26 1002.13 1002.84 1003.20 1003.43 1003.62 1003.64 1003.76 1003.93 1003.99 1004.31 1004.73 1005.28 1005.69 1006.14 1006.65 1007.16 1007.50 1008.11 1008.69 1009.28 1009.58 1009.67
1006.34 1006.00 1005.50 1004.89 1004.95 1004.56 1003.77 1003.12 1001.64 1001.32 1000.62 999.92 999.18 998.30 998.13 998.06 997.97 997.84 997.96 998.42 998.72 998.92 998.83 999.22 999.63 1000.13 1000.63 1001.10 1001.60 1001.93 1002.54 1002.72 1002.72 1002.91 1003.24 1003.13 1003.46 1003.91 1004.56 1004.97 1005.40 1005.96 1006.63 1007.21 1007.73 1008.17 1008.77 1009.12 1009.44
1006.20 1005.97 1005.61 1005.16 1005.07 1004.54 1004.38 1003.39 1001.98 1000.68 1000.44 999.59 998.66 997.99 997.35 997.45 997.37 997.44 997.58 997.66 997.89 998.40 998.75 998.84 999.13 999.50 999.91 1000.18 1000.74 1001.32 1001.85 1002.15 1002.59 1002.75 1002.79 1002.59 1002.75 1003.24 1003.75 1004.39 1004.96 1005.55 1006.06 1006.80 1007.26 1007.70 1008.21 1009.05 1009.41
1006.23 1005.99 1005.66 1005.47 1005.54 1004.97 1004.90 1003.31 1003.13 1001.01 1000.18 999.62 998.72 998.21 997.61 997.29 997.02 996.92 997.00 997.26 997.49 997.79 997.90 998.05 998.58 999.01 999.46 999.67 1000.23 1000.73 1001.20 1001.87 1001.79 1002.14 1002.25 1002.11 1002.18 1002.78 1003.31 1003.93 1004.56 1005.19 1005.74 1006.34 1006.74 1007.20 1007.82 1008.43 1009.21
1006.98 1006.75 1006.08 1006.19 1005.80 1005.40 1005.11 1004.43 1002.18 1001.70 1000.28 999.83 999.10 998.06 997.13 996.71 996.78 996.64 996.61 996.92 996.68 996.91 997.29 997.56 997.93 998.35 998.58 998.95 999.47 1000.12 1000.78 1000.94 1001.21 1001.55 1001.91 1001.90 1002.08 1002.41 1003.03 1003.63 1004.33 1004.97 1005.53 1005.97 1006.33 1006.90 1007.49 1007.98 1008.69
1007.59 1007.42 1007.26 1007.03 1006.54 1005.88 1005.16 1004.95 1002.10 1001.99 1000.67 999.53 998.93 997.93 997.20 996.47 996.07 995.75 995.65 995.71 995.94 996.26 996.54 997.01 997.39 997.63 997.86 998.31 998.84 999.30 999.77 1000.48 1001.05 1001.42 1001.71 1002.02 1002.22 1002.60 1002.97 1003.54 1004.17 1004.70 1005.22 1005.69 1006.10 1006.57 1007.08 1007.68 1008.20
1008.11 1008.53 1008.67 1008.19 1007.38 1005.84 1005.53 1004.62 1002.42 1001.23 1000.32 999.74 999.13 998.24 997.58 996.93 995.98 995.28 995.12 995.06 995.05 995.31 995.55 995.80 996.33 996.83 997.13 997.68 998.18 998.63 999.07 999.72 1000.49 1001.04 1001.29 1001.84 1002.25 1002.79 1003.19 1003.42 1003.93 1004.55 1004.98 1005.48 1005.91 1006.53 1007.12 1007.64 1008.25
1008.37 1009.33 1010.08 1009.39 1008.14 1007.09 1005.97 1004.37 1002.08 1001.36 1000.83 999.88 999.29 998.62 997.86 997.15 996.24 995.16 994.35 993.91 993.84 994.20 994.64 994.99 995.43 995.98 996.42 996.96 997.43 997.96 998.61 999.27 999.93 1000.52 1000.97 1001.39 1001.90 1002.47 1002.87 1003.26 1003.78 1004.45 1004.89 1005.47 1006.02 1006.56 1007.10 1007.51 1008.02
1007.81 1009.03 1008.29 1009.81 1009.88 1009.15 1007.05 1004.80 1002.60 1001.54 1001.64 1001.99 1001.23 1000.19 998.41 997.00 995.61 994.60 993.59 992.88 993.16 993.38 993.63 994.18 994.67 995.30 995.73 996.25 996.88 997.60 998.24 998.95 999.53 1000.18 1000.61 1001.30 1001.75 1002.22 1002.76 1003.10 1003.79 1004.45 1004.88 1005.49 1006.04 1006.58 1007.07 1007.44 1007.79
1007.12 1007.11 1008.61 1009.37 1009.67 1008.92 1007.08 1005.57 1004.19 1003.78 1003.71 1003.28 1002.32 1001.08 999.92 998.31 995.87 994.29 993.25 992.98 992.62 992.48 992.79 993.29 993.60 994.39 995.09 995.86 996.58 997.36 998.01 998.70 999.28 999.95 1000.55 1001.18 1001.69 1002.02 1002.52 1003.16 1003.75 1004.35 1004.94 1005.48 1006.05 1006.67 1006.97 1007.32 1007.71
1006.81 1007.54 1008.73 1009.82 1009.84 1009.13 1007.72 1005.85 1005.49 1004.92 1004.56 1003.87 1002.70 1001.40 1000.53 998.95 997.01 994.53 993.01 992.69 992.13 991.95 992.36 992.85 993.43 994.07 995.00 995.72 996.50 997.29 997.98 998.59 999.11 999.68 1000.41 1001.04 1001.44 1001.91 1002.52 1003.18 1003.81 1004.43 1005.01 1005.55 1006.10 1006.49 1006.73 1007.26 1007.66
1006.78 1007.51 1008.38 1009.90 1009.84 1008.79 1007.46 1005.74 1005.22 1004.90 1004.32 1003.41 1002.26 1001.86 1000.33 998.95 997.16 995.69 993.29 992.25 992.38 992.22 992.67 992.88 993.58 994.36 995.05 995.67 996.52 997.30 997.92 998.56 999.16 999.75 1000.33 1000.89 1001.55 1002.08 1002.61 1003.21 1003.79 1004.43 1005.01 1005.52 1006.02 1006.39 1006.49 1007.05 1007.38
Wind_Speed
5 6 3 3 4 2 6 9 11 16 16 12 6 8 5 6 10 7 7 16 19 17 16 18 21 20 19 18 15 16 15 14 13 14 14 14 13 12 11 10 9 9 9 8 8 8 7 7 7
5 5 2 3 4 3 7 15 20 23 19 9 6 6 9 3 8 13 12 17 23 18 15 15 21 20 20 19 17 16 16 15 14 14 13 13 12 12 11 10 9 9 9 8 8 7 7 7 6
4 5 1 5 4 8 7 14 10 16 30 7 3 5 7 9 11 4 14 17 21 15 14 15 20 21 20 20 18 17 16 15 14 14 14 13 12 11 10 10 9 9 9 9 8 8 7 7 5
2 3 4 0 11 11 21 18 19 19 21 3 7 7 7 17 11 11 19 19 19 15 13 19 21 21 19 20 19 18 17 16 15 15 14 14 13 11 11 10 10 10 10 10 9 8 8 7 6
2 3 3 4 11 15 17 19 17 18 20 7 4 3 9 4 18 23 21 18 19 15 12 16 21 21 20 19 19 18 18 17 16 16 15 15 14 13 12 12 12 11 10 11 10 9 8 7 8
3 3 2 6 16 18 20 17 8 12 17 10 3 6 7 16 25 18 18 16 16 18 16 15 19 20 20 20 19 17 17 17 16 16 15 15 15 14 13 13 12 12 11 11 11 11 10 9 8
5 5 8 11 17 19 19 13 10 10 9 2 4 1 7 10 5 20 18 17 16 15 15 14 14 15 18 17 18 16 15 16 16 16 16 16 16 16 15 14 13 13 12 12 11 12 11 9 8
3 3 12 10 14 19 18 16 8 7 12 7 3 4 7 4 6 3 14 17 16 14 13 13 11 11 10 11 16 16 16 15 15 16 15 16 15 15 16 14 14 15 14 12 12 12 10 10 10
4 8 11 16 16 19 19 13 18 12 6 6 6 5 6 9 6 9 4 13 15 14 15 14 14 11 9 8 10 14 16 16 15 14 15 12 7 9 12 13 15 15 14 14 13 12 11 11 10
6 8 18 15 16 19 21 16 17 15 19 8 3 9 10 15 9 6 18 10 16 15 15 15 15 15 13 10 9 8 8 7 7 8 8 7 6 7 10 13 17 17 16 15 14 12 11 10 3
7 20 14 17 19 22 23 22 15 16 15 10 4 3 6 23 21 22 19 7 10 13 8 13 14 14 16 11 8 6 6 6 6 8 8 7 6 6 7 5 7 6 14 6 9 7 5 5 4
17 18 18 19 22 23 25 20 22 19 16 17 11 2 8 13 19 20 11 12 12 13 8 13 14 15 13 9 9 8 8 8 7 9 9 7 6 7 5 5 6 6 6 6 5 4 5 6 7
21 18 17 20 19 24 25 25 21 24 20 20 16 7 4 10 16 10 9 11 17 21 25 14 13 14 12 10 8 9 9 9 9 8 10 10 8 8 8 5 5 7 6 7 6 6 8 8 10
9 15 16 17 18 19 26 26 19 23 18 17 19 9 2 9 4 2 12 10 12 12 11 10 11 11 12 11 12 11 9 10 9 9 10 14 10 9 9 9 8 7 9 8 8 8 9 9 8
11 12 14 17 13 16 10 19 28 20 19 20 21 13 8 6 11 13 10 10 12 8 8 9 13 14 11 12 8 9 9 8 10 10 12 15 13 11 12 9 10 7 9 10 9 9 8 6 9
8 9 7 2 13 19 8 24 20 13 16 17 19 19 19 8 7 12 11 9 10 8 10 11 15 16 17 12 8 6 6 6 7 8 9 14 15 14 12 9 10 7 6 9 8 9 8 9 9
5 9 11 16 8 8 11 25 23 14 15 19 20 20 20 20 9 7 11 13 10 11 11 10 10 16 15 11 7 6 7 6 5 5 7 13 14 15 13 10 8 11 7 8 8 9 7 5 4
7 10 10 15 6 13 16 19 24 21 20 20 19 19 16 17 18 8 9 10 10 11 10 10 9 10 10 7 5 4 4 5 4 6 6 8 12 16 14 9 9 9 10 6 7 5 5 4 4
15 15 13 13 9 12 13 15 19 12 18 20 21 12 17 18 21 24 15 10 8 6 10 11 11 10 7 4 5 3 5 4 4 5 8 9 11 14 14 10 8 8 10 12 7 5 6 4 4
12 16 15 11 11 14 15 17 20 15 15 14 20 21 18 15 19 22 19 15 9 10 10 10 11 10 7 5 4 5 5 4 4 6 8 12 9 13 13 12 9 10 6 6 7 6 4 4 5
12 14 10 14 10 12 9 17 21 20 14 16 16 18 18 18 17 18 17 9 11 10 12 12 12 12 8 9 3 2 2 1 2 3 6 9 9 12 13 11 9 6 6 5 5 6 8 4 3
16 14 18 17 11 12 4 16 15 21 17 13 15 12 10 8 15 18 17 14 9 10 8 8 10 10 9 10 6 8 8 7 5 4 4 5 9 11 11 11 10 8 5 6 6 5 5 5 5
13 23 13 18 18 10 8 10 12 10 19 17 16 12 12 11 10 10 10 10 11 9 10 10 11 13 12 13 11 9 6 5 4 3 7 5 6 8 8 9 7 6 4 5 7 6 6 4 4
14 13 15 15 8 12 10 7 18 12 17 17 16 15 18 20 11 12 12 11 9 8 9 9 11 13 14 12 12 12 10 8 4 3 5 4 4 5 7 8 6 6 5 6 5 6 7 6 4
10 7 5 5 8 14 10 14 20 11 16 14 15 20 16 11 11 15 15 12 14 11 11 8 11 11 11 12 13 12 12 9 9 7 7 8 4 3 5 6 6 4 5 5 6 6 5 5 4
6 3 4 5 5 7 14 11 13 11 18 16 15 15 15 17 13 10 18 19 17 17 12 10 9 9 10 12 11 10 9 5 5 8 6 6 5 6 7 6 6 6 5 4 5 4 5 5 5
5 7 15 10 8 3 8 16 14 17 10 20 24 28 20 19 15 14 9 13 12 10 14 17 11 10 10 10 8 8 8 7 6 9 8 6 6 6 7 7 6 6 5 6 6 5 5 5 5
8 6 6 3 3 4 6 11 9 14 16 19 21 24 24 25 23 14 8 8 7 9 8 10 11 11 10 9 8 8 8 9 11 10 9 8 6 7 7 7 7 7 7 7 7 4 5 6 4
13 4 5 3 1 4 4 4 2 6 8 15 20 24 23 18 21 17 7 6 9 7 9 9 10 12 9 8 7 8 7 12 10 8 7 7 6 7 7 7 7 7 7 7 6 6 6 7 6
13 4 5 4 5 4 4 9 4 6 9 13 18 24 24 18 22 19 12 6 8 8 9 12 10 10 9 8 7 8 11 10 10 9 7 8 8 8 9 8 8 8 8 7 7 6 5 7 7
Wind_Direction
305 265 261 298 49 116 248 251 242 268 269 255 225 103 124 160 146 197 149 120 132 147 152 156 148 142 141 137 141 138 139 137 136 133 133 132 132 130 131 129 129 129 130 131 130 130 125 117 115
317 272 266 272 127 258 269 239 249 245 256 259 87 49 61 29 79 104 98 143 145 151 152 158 147 143 143 141 145 146 143 143 142 139 140 139 140 142 145 148 143 146 145 144 143 142 135 127 124
297 265 122 151 208 227 249 252 286 297 311 180 94 84 105 121 94 95 117 142 138 148 155 155 148 148 148 145 149 149 146 147 148 147 148 147 147 151 158 159 158 163 162 159 159 157 152 147 147
299 308 315 29 261 254 236 275 282 298 302 75 124 110 73 143 127 139 139 141 133 148 156 156 153 151 151 151 153 152 153 153 155 154 156 155 158 163 170 170 172 176 176 172 172 174 171 169 168
208 260 238 252 252 262 261 258 265 276 290 225 127 173 118 122 123 135 143 141 140 155 153 156 157 155 155 156 157 158 162 159 163 164 165 165 164 173 176 181 181 183 187 183 182 183 181 182 189
294 177 264 239 258 264 269 271 283 285 280 275 172 156 161 144 137 148 140 140 151 153 147 157 160 159 160 163 160 166 165 165 169 168 170 169 170 177 182 189 184 188 192 193 189 190 193 194 205
222 269 249 255 262 271 269 272 271 270 291 243 26 80 55 53 108 146 146 143 152 145 145 152 160 164 164 164 165 169 170 174 174 174 176 176 178 178 186 190 190 193 197 199 200 200 197 200 216
256 242 260 261 273 278 286 302 310 310 282 285 132 237 140 187 109 355 151 148 147 139 145 145 155 159 160 165 169 171 177 183 181 184 183 183 184 185 190 193 195 199 200 201 205 207 203 207 216
280 241 244 240 250 263 287 304 313 304 305 328 323 104 161 112 65 67 260 155 149 154 154 153 158 159 159 160 176 175 183 189 190 191 190 187 179 187 194 197 200 204 202 203 211 210 206 218 228
206 234 233 248 255 267 280 289 295 326 323 300 49 128 155 110 120 46 271 172 170 165 166 162 161 164 162 177 175 177 183 191 191 192 190 184 182 182 195 199 202 206 204 204 214 215 210 225 210
230 240 248 252 255 259 274 286 316 310 300 285 271 221 146 135 145 171 229 112 46 342 149 161 161 166 166 181 169 179 187 189 194 195 185 185 187 201 199 197 204 200 207 198 211 214 207 214 200
247 245 242 253 273 283 279 296 298 298 286 288 282 148 312 153 158 179 195 101 84 71 305 163 167 170 181 171 176 176 184 190 195 199 184 182 193 200 200 197 195 191 195 185 194 190 200 215 215
257 269 261 248 245 257 274 270 275 283 286 297 288 308 26 267 173 159 144 153 160 171 200 198 169 171 170 188 170 182 189 192 197 190 193 191 195 195 199 196 186 189 177 186 199 187 203 215 227
296 292 278 268 260 245 246 265 261 262 273 280 288 283 297 292 104 193 144 189 168 198 184 159 159 165 180 188 181 182 186 191 187 195 193 195 200 198 198 202 201 185 185 186 197 198 204 214 213
324 310 291 278 274 264 284 261 253 254 260 270 283 286 279 224 273 195 208 176 179 194 163 162 166 175 181 198 185 178 183 191 188 199 192 193 200 198 199 199 206 190 188 187 195 208 210 201 211
299 290 289 360 244 264 275 273 263 277 254 258 269 274 272 248 249 249 232 204 197 176 175 170 177 179 188 192 193 191 186 184 191 197 191 193 201 201 197 199 201 192 174 193 191 203 210 216 223
240 266 276 286 272 263 211 259 266 263 267 255 250 263 267 269 262 242 260 236 222 193 186 194 170 175 180 183 175 190 190 202 213 191 190 198 199 201 198 202 192 192 185 190 187 205 201 205 191
251 257 256 254 268 256 260 255 254 252 248 258 242 241 245 253 269 266 259 233 227 207 197 165 161 162 169 161 163 200 186 216 208 214 210 189 202 200 196 194 188 179 202 194 192 175 191 181 182
249 263 281 291 337 333 294 289 287 299 263 246 249 255 235 232 245 267 270 268 273 220 162 163 157 166 147 139 167 194 206 203 206 211 226 216 193 196 192 197 179 173 193 206 182 164 181 208 164
282 276 276 299 315 299 301 294 293 295 286 272 257 241 237 233 233 246 256 255 234 187 181 168 173 173 178 160 179 161 174 204 187 209 225 226 182 184 189 187 178 185 175 178 177 165 156 182 166
301 295 298 280 282 270 295 294 292 289 281 283 267 255 238 224 220 228 243 241 252 189 185 182 188 187 188 192 148 134 66 7 237 242 234 225 178 171 181 181 181 169 174 179 176 169 170 158 193
289 272 283 288 287 275 220 277 280 290 288 286 279 268 259 249 239 233 229 239 213 207 204 183 182 182 194 185 179 181 205 211 226 214 212 202 163 167 161 166 166 182 173 171 177 168 154 134 163
315 329 308 313 288 290 268 277 278 288 281 278 285 282 259 239 221 222 222 227 232 195 190 188 189 195 199 200 195 190 185 195 208 195 193 168 150 152 146 153 156 161 165 186 173 157 153 151 145
307 341 332 303 271 264 259 242 274 258 275 279 282 282 283 264 229 228 229 223 233 208 199 201 192 202 202 196 192 186 180 194 192 192 162 157 133 135 144 146 157 164 169 183 165 163 156 165 150
335 42 313 298 250 256 242 245 245 249 252 270 275 276 277 290 269 254 245 229 238 235 232 212 198 208 193 192 192 194 190 179 194 181 159 153 139 136 154 144 140 144 157 164 151 144 148 145 152
296 253 186 275 270 297 313 284 275 284 307 291 290 274 282 286 274 253 249 230 229 228 230 220 209 208 186 186 182 176 171 169 174 172 154 149 140 141 154 141 139 158 160 163 141 129 143 158 167
170 259 236 218 284 335 271 282 285 276 347 0 355 346 319 296 276 266 259 213 208 202 215 212 183 184 170 168 160 163 160 169 149 136 130 138 135 147 152 147 150 158 162 143 135 135 161 175 185
184 205 309 218 242 253 249 272 267 8 358 345 342 332 319 322 294 266 239 243 226 214 200 183 171 163 163 156 158 158 156 143 139 140 144 151 154 152 149 147 156 147 147 137 135 164 182 160 162
311 314 1 40 213 205 261 254 50 8 358 337 328 332 313 312 327 282 223 274 244 189 162 148 134 124 127 131 137 147 136 141 140 139 141 150 141 135 136 138 140 142 131 143 145 168 163 163 154
277 317 179 223 280 251 265 287 6 42 1 342 330 320 299 300 314 308 286 281 193 147 128 120 119 121 127 130 117 117 129 128 132 139 145 142 127 129 134 139 134 133 136 146 161 168 164 158 169